This is the latest recevied weather packets stored in our database for station/object K7LER. If no packets are shown the sender has not sent any weather packets the latest 10 day(s).
| Time | Temp. | Humidity | Pressure | Rain* | Wind** | Luminosity | Snow |
|---|---|---|---|---|---|---|---|
| 1777757135 | 19.44° C | 56% | 1014.8 hPa | 0 mm | - | 770 W/m² | - |
| 1777756835 | 19.44° C | 58% | 1014.9 hPa | 0 mm | - | 765 W/m² | - |
| 1777756548 | 19.44° C | 59% | 1015.2 hPa | 0 mm | - | 770 W/m² | - |
| 1777756235 | 19.44° C | 59% | 1015.2 hPa | 0 mm | - | 773 W/m² | - |
| 1777755935 | 19.44° C | 60% | 1015.2 hPa | 0 mm | - | 756 W/m² | - |
| 1777755659 | 19.44° C | 61% | 1015.2 hPa | 0 mm | - | 761 W/m² | - |
| 1777755335 | 19.44° C | 61% | 1015.2 hPa | 0 mm | - | 766 W/m² | - |
| 1777755037 | 19.44° C | 61% | 1015.1 hPa | 0 mm | - | 770 W/m² | - |
| 1777754743 | 19.44° C | 61% | 1015.1 hPa | 0 mm | - | 796 W/m² | - |
| 1777754436 | 18.89° C | 63% | 1015.2 hPa | 0 mm | - | 802 W/m² | - |
| 1777754136 | 18.89° C | 62% | 1015.2 hPa | 0 mm | - | 793 W/m² | - |
| 1777753851 | 18.89° C | 62% | 1015.2 hPa | 0 mm | - | 814 W/m² | - |
| 1777753534 | 18.89° C | 63% | 1015.2 hPa | 0 mm | - | 814 W/m² | - |
| 1777753236 | 18.89° C | 64% | 1015.3 hPa | 0 mm | - | 795 W/m² | - |
| 1777752947 | 18.33° C | 64% | 1015.3 hPa | 0 mm | - | 722 W/m² | - |
| 1777752635 | 18.33° C | 66% | 1015.5 hPa | 0 mm | - | 726 W/m² | - |
| 1777752335 | 17.78° C | 67% | 1015.5 hPa | 0 mm | - | 735 W/m² | - |
| 1777752056 | 17.22° C | 70% | 1015.6 hPa | 0 mm | - | 824 W/m² | - |
| 1777751736 | 17.22° C | 72% | 1015.7 hPa | 0 mm | - | 809 W/m² | - |
| 1777751436 | 16.67° C | 71% | 1015.7 hPa | 0 mm | - | 823 W/m² | - |
| 1777751150 | 16.67° C | 71% | 1015.7 hPa | 0 mm | - | 784 W/m² | - |
| 1777750837 | 16.67° C | 73% | 1015.8 hPa | 0 mm | - | 798 W/m² | - |
| 1777750539 | 16.11° C | 73% | 1015.9 hPa | 0 mm | - | 786 W/m² | - |
| 1777750243 | 16.11° C | 73% | 1016 hPa | 0 mm | - | 821 W/m² | - |
| 1777749937 | 16.11° C | 75% | 1016 hPa | 0 mm | - | 853 W/m² | - |
* Rain latest hour (hover to see other rain measurements)
** Current wind speed in m/s (hover to see current wind gust speed)